^^
Datos históricos de la estación: Murcia-Puente Tocinos
Diario Informe para Abril 2, 2019 Unidades:  Métrico    Inglés   Ambas
Diario Semanal Mensual Anual Configurable
  Máximo: Mínimo: Media:
Temperatura: 22.4 °C 12.4 °C 16.9 °C
Punto de rocio: 12.7 °C 7.9 °C 11.2 °C
Humedad: 94% 40% 72%
Velocidad viento: 16.1km/h 0.0km/h 5.5km/h
Racha viento: 29.0km/h - -
Viento- - South
Presión: 1015.7 hPa 1010.0 hPa -
Precipitación: 0.0 mm    
Historical Graphs
 
 
Tabla de datos para Abril 2, 2019
Hora Temperatura Punto de rocio Presión Viento Velocidad viento Racha viento Humedad Intensidad lluvia(por hora) Nubes
00:00 14.1 °C 12.5 °C 1015.5 hPa NE 4.8 km/h 8.0 km/h 90% 0.0 mm RA
00:05 14.1 °C 12.5 °C 1015.6 hPa NE 5.0 km/h 7.4 km/h 90% 0.0 mm RA
00:10 14.1 °C 12.5 °C 1015.6 hPa NE 4.7 km/h 7.4 km/h 90% 0.0 mm RA
00:15 14.1 °C 12.5 °C 1015.6 hPa NE 3.2 km/h 9.7 km/h 90% 0.0 mm CLR
00:19 14.1 °C 12.5 °C 1015.7 hPa NE 4.7 km/h 4.7 km/h 90% 0.0 mm CLR
00:25 14.1 °C 12.5 °C 1015.7 hPa NE 3.2 km/h 11.3 km/h 90% 0.0 mm CLR
00:29 14.0 °C 12.4 °C 1015.7 hPa NNE 5.8 km/h 10.0 km/h 90% 0.0 mm CLR
00:34 14.0 °C 12.4 °C 1015.6 hPa NE 5.8 km/h 9.3 km/h 90% 0.0 mm CLR
00:40 14.0 °C 12.4 °C 1015.6 hPa NNE 6.9 km/h 7.4 km/h 90% 0.0 mm CLR
00:45 13.9 °C 12.3 °C 1015.6 hPa NNE 8.0 km/h 8.0 km/h 90% 0.0 mm CLR
00:50 13.9 °C 12.4 °C 1015.7 hPa NE 5.0 km/h 7.4 km/h 91% 0.0 mm CLR
00:55 13.9 °C 12.4 °C 1015.7 hPa NE 4.8 km/h 8.0 km/h 91% 0.0 mm CLR
00:59 13.9 °C 12.4 °C 1015.7 hPa NE 4.7 km/h 6.4 km/h 91% 0.0 mm CLR
01:05 13.9 °C 12.4 °C 1015.6 hPa NE 4.7 km/h 7.4 km/h 91% 0.0 mm CLR
01:10 13.9 °C 12.4 °C 1015.6 hPa NE 3.2 km/h 9.7 km/h 91% 0.0 mm CLR
01:15 13.9 °C 12.4 °C 1015.6 hPa NE 3.9 km/h 5.6 km/h 91% 0.0 mm CLR
01:20 13.9 °C 12.4 °C 1015.6 hPa NE 4.7 km/h 7.4 km/h 91% 0.0 mm CLR
01:25 13.9 °C 12.4 °C 1015.6 hPa NE 3.2 km/h 8.0 km/h 91% 0.0 mm CLR
01:30 13.9 °C 12.4 °C 1015.6 hPa NE 3.2 km/h 5.6 km/h 91% 0.0 mm CLR
01:35 13.9 °C 12.3 °C 1015.6 hPa East 3.2 km/h   90% 0.0 mm CLR
01:40 13.9 °C 12.3 °C 1015.6 hPa ENE 3.2 km/h   90% 0.0 mm CLR
01:45 14.0 °C 12.4 °C 1015.6 hPa East 3.2 km/h   90% 0.0 mm CLR
01:50 14.1 °C 12.5 °C 1015.6 hPa Calm     90% 0.0 mm CLR
01:55 14.0 °C 12.2 °C 1015.6 hPa Calm     89% 0.0 mm CLR
02:00 14.1 °C 12.5 °C 1015.6 hPa Calm   3.2 km/h 90% 0.0 mm CLR
02:05 14.1 °C 12.5 °C 1015.7 hPa Calm   7.4 km/h 90% 0.0 mm CLR
02:10 14.0 °C 12.4 °C 1015.7 hPa North 3.2 km/h 5.6 km/h 90% 0.0 mm CLR
02:15 14.0 °C 12.4 °C 1015.7 hPa North 3.2 km/h 6.4 km/h 90% 0.0 mm CLR
02:20 14.0 °C 12.4 °C 1015.6 hPa North 3.2 km/h 6.4 km/h 90% 0.0 mm CLR
02:25 14.0 °C 12.4 °C 1015.6 hPa North 3.2 km/h 3.7 km/h 90% 0.0 mm CLR
02:30 14.1 °C 12.7 °C 1015.6 hPa North 2.3 km/h 3.9 km/h 91% 0.0 mm CLR
02:35 14.1 °C 12.7 °C 1015.7 hPa North 2.3 km/h   91% 0.0 mm CLR
02:40 14.1 °C 12.6 °C 1015.7 hPa North 3.2 km/h 4.8 km/h 91% 0.0 mm CLR
02:45 14.0 °C 12.6 °C 1015.7 hPa North 2.9 km/h   91% 0.0 mm CLR
02:50 14.1 °C 12.7 °C 1015.5 hPa Calm     91% 0.0 mm CLR
02:55 14.1 °C 12.7 °C 1015.5 hPa Calm     91% 0.0 mm CLR
03:00 14.1 °C 12.7 °C 1015.5 hPa Calm     91% 0.0 mm CLR
03:05 14.1 °C 12.7 °C 1015.4 hPa Calm     91% 0.0 mm CLR
03:10 14.0 °C 12.6 °C 1015.4 hPa Calm   3.7 km/h 91% 0.0 mm CLR
03:15 14.0 °C 12.6 °C 1015.4 hPa Calm     91% 0.0 mm CLR
03:20 14.0 °C 12.6 °C 1015.1 hPa Calm     91% 0.0 mm CLR
03:25 13.9 °C 12.3 °C 1015.1 hPa Calm     90% 0.0 mm CLR
03:30 13.9 °C 12.3 °C 1015.1 hPa Calm     90% 0.0 mm CLR
03:35 13.9 °C 12.3 °C 1015.1 hPa Calm   4.7 km/h 90% 0.0 mm CLR
03:40 13.9 °C 12.4 °C 1015.1 hPa ENE 2.9 km/h 1.9 km/h 91% 0.0 mm CLR
03:45 13.8 °C 12.3 °C 1015.1 hPa ENE 3.2 km/h 8.0 km/h 91% 0.0 mm CLR
03:50 13.8 °C 12.3 °C 1015.0 hPa ENE 2.3 km/h   91% 0.0 mm CLR
03:55 13.8 °C 12.3 °C 1015.0 hPa ENE 2.3 km/h   91% 0.0 mm CLR
04:00 13.8 °C 12.3 °C 1015.0 hPa Calm     91% 0.0 mm CLR
04:05 13.9 °C 12.4 °C 1014.9 hPa Calm     91% 0.0 mm CLR
04:10 13.9 °C 12.4 °C 1014.9 hPa Calm     91% 0.0 mm CLR
04:15 13.9 °C 12.4 °C 1014.9 hPa Calm     91% 0.0 mm CLR
04:20 13.9 °C 12.4 °C 1014.8 hPa Calm     91% 0.0 mm CLR
04:25 13.9 °C 12.4 °C 1014.8 hPa Calm     91% 0.0 mm CLR
04:30 13.9 °C 12.4 °C 1014.8 hPa Calm     91% 0.0 mm CLR
04:35 13.9 °C 12.4 °C 1014.8 hPa Calm     91% 0.0 mm CLR
04:40 13.9 °C 12.4 °C 1014.8 hPa Calm   7.4 km/h 91% 0.0 mm CLR
04:45 13.9 °C 12.4 °C 1014.8 hPa Calm   5.8 km/h 91% 0.0 mm CLR
04:50 13.8 °C 12.3 °C 1014.7 hPa SSW 3.9 km/h 9.5 km/h 91% 0.0 mm CLR
04:55 13.8 °C 12.3 °C 1014.7 hPa SW 3.9 km/h 9.3 km/h 91% 0.0 mm CLR
05:00 13.8 °C 12.2 °C 1014.7 hPa SSW 8.0 km/h 9.7 km/h 90% 0.0 mm CLR
05:05 13.7 °C 12.1 °C 1014.5 hPa SSW 6.4 km/h 7.4 km/h 90% 0.0 mm CLR
05:10 13.7 °C 12.1 °C 1014.5 hPa SSW 5.8 km/h 5.6 km/h 90% 0.0 mm CLR
05:15 13.7 °C 12.1 °C 1014.5 hPa SSW 4.8 km/h 8.0 km/h 90% 0.0 mm CLR
05:20 13.7 °C 12.1 °C 1014.5 hPa SSW 4.7 km/h 7.4 km/h 90% 0.0 mm CLR
05:25 13.6 °C 12.2 °C 1014.5 hPa SSW 4.7 km/h 7.4 km/h 91% 0.0 mm CLR
05:30 13.6 °C 12.2 °C 1014.5 hPa South 5.0 km/h 7.4 km/h 91% 0.0 mm CLR
05:35 13.5 °C 12.1 °C 1014.6 hPa South 4.8 km/h 9.7 km/h 91% 0.0 mm CLR
05:40 13.4 °C 11.9 °C 1014.6 hPa SSW 5.8 km/h 7.4 km/h 91% 0.0 mm CLR
05:45 13.4 °C 11.9 °C 1014.6 hPa SSW 5.8 km/h 7.4 km/h 91% 0.0 mm CLR
05:50 13.4 °C 11.9 °C 1014.6 hPa SSW 5.0 km/h 5.6 km/h 91% 0.0 mm CLR
05:55 13.4 °C 12.1 °C 1014.6 hPa SSW 5.0 km/h 5.6 km/h 92% 0.0 mm CLR
06:00 13.3 °C 12.0 °C 1014.6 hPa SSW 3.2 km/h 8.0 km/h 92% 0.0 mm CLR
06:05 13.3 °C 12.0 °C 1014.3 hPa South 3.2 km/h 8.0 km/h 92% 0.0 mm CLR
06:10 13.3 °C 12.0 °C 1014.3 hPa South 4.7 km/h 7.4 km/h 92% 0.0 mm CLR
06:15 13.3 °C 12.0 °C 1014.3 hPa SSE 4.7 km/h 7.4 km/h 92% 0.0 mm CLR
06:20 13.3 °C 12.0 °C 1014.3 hPa South 5.0 km/h 7.4 km/h 92% 0.0 mm CLR
06:25 13.2 °C 11.9 °C 1014.3 hPa South 5.0 km/h 9.3 km/h 92% 0.0 mm CLR
06:30 13.2 °C 11.8 °C 1014.3 hPa South 5.8 km/h 7.4 km/h 91% 0.0 mm CLR
06:35 13.2 °C 11.8 °C 1014.4 hPa South 5.8 km/h 7.6 km/h 91% 0.0 mm CLR
06:40 13.2 °C 11.8 °C 1014.4 hPa South 8.0 km/h 9.7 km/h 91% 0.0 mm CLR
06:45 13.2 °C 11.8 °C 1014.4 hPa South 6.4 km/h 9.3 km/h 91% 0.0 mm CLR
06:50 13.2 °C 11.8 °C 1014.2 hPa South 6.4 km/h 7.6 km/h 91% 0.0 mm CLR
06:55 13.2 °C 11.8 °C 1014.2 hPa South 6.4 km/h 9.5 km/h 91% 0.0 mm CLR
07:00 13.2 °C 11.8 °C 1014.2 hPa South 8.0 km/h 9.7 km/h 91% 0.0 mm CLR
07:05 13.3 °C 11.9 °C 1014.3 hPa South 6.4 km/h 7.6 km/h 91% 0.0 mm CLR
07:10 13.3 °C 11.9 °C 1014.3 hPa SSW 6.4 km/h 7.4 km/h 91% 0.0 mm CLR
07:15 13.4 °C 11.8 °C 1014.3 hPa SSE 6.4 km/h 9.3 km/h 90% 0.0 mm CLR
07:20 13.4 °C 11.8 °C 1014.4 hPa South 5.8 km/h 10.0 km/h 90% 0.0 mm CLR
07:25 13.4 °C 11.8 °C 1014.4 hPa South 5.8 km/h 7.4 km/h 90% 0.0 mm CLR
07:30 13.4 °C 11.8 °C 1014.4 hPa South 4.7 km/h 5.6 km/h 90% 0.0 mm CLR
07:35 13.4 °C 11.8 °C 1014.3 hPa SSW 4.7 km/h 7.4 km/h 90% 0.0 mm CLR
07:40 13.4 °C 11.8 °C 1014.3 hPa SSW 3.9 km/h 3.7 km/h 90% 0.0 mm CLR
07:45 13.2 °C 11.4 °C 1014.3 hPa SSW 3.9 km/h 5.6 km/h 89% 0.0 mm CLR
07:50 12.9 °C 11.1 °C 1014.4 hPa SSW 2.9 km/h 5.6 km/h 89% 0.0 mm CLR
07:55 12.7 °C 11.1 °C 1014.4 hPa SSW 3.2 km/h 6.4 km/h 90% 0.0 mm CLR
08:00 12.6 °C 11.0 °C 1014.4 hPa SSW 3.2 km/h 4.8 km/h 90% 0.0 mm CLR
08:05 12.4 °C 10.9 °C 1014.6 hPa SSW 3.2 km/h   91% 0.0 mm CLR
08:10 12.4 °C 10.9 °C 1014.6 hPa Calm   2.3 km/h 91% 0.0 mm CLR
08:15 12.4 °C 11.1 °C 1014.6 hPa Calm   1.9 km/h 92% 0.0 mm CLR
08:20 12.4 °C 11.1 °C 1014.7 hPa Calm     92% 0.0 mm CLR
08:25 12.4 °C 11.1 °C 1014.7 hPa Calm   3.9 km/h 92% 0.0 mm CLR
08:30 12.4 °C 11.1 °C 1014.7 hPa SSW 2.9 km/h 5.6 km/h 92% 0.0 mm CLR
08:35 12.5 °C 11.2 °C 1014.8 hPa SSW 2.9 km/h 3.9 km/h 92% 0.0 mm CLR
08:40 12.6 °C 11.5 °C 1014.8 hPa SSW 2.9 km/h 3.7 km/h 93% 0.0 mm CLR
08:45 12.6 °C 11.5 °C 1014.8 hPa SSW 2.9 km/h   93% 0.0 mm CLR
08:50 12.6 °C 11.5 °C 1014.8 hPa Calm   1.9 km/h 93% 0.0 mm CLR
08:55 12.7 °C 11.6 °C 1014.8 hPa Calm   3.7 km/h 93% 0.0 mm CLR
09:00 12.8 °C 11.7 °C 1014.8 hPa SSW 1.6 km/h 4.8 km/h 93% 0.0 mm CLR
09:05 12.9 °C 11.9 °C 1014.9 hPa SSW 2.3 km/h 4.7 km/h 94% 0.0 mm CLR
09:10 13.0 °C 11.9 °C 1014.9 hPa SSW 2.3 km/h 3.7 km/h 93% 0.0 mm CLR
09:15 13.1 °C 12.0 °C 1014.9 hPa South 2.3 km/h 7.4 km/h 93% 0.0 mm CLR
09:20 13.2 °C 12.1 °C 1014.9 hPa SSW 3.2 km/h 8.0 km/h 93% 0.0 mm CLR
09:25 13.3 °C 12.2 °C 1014.9 hPa SSW 3.2 km/h 7.4 km/h 93% 0.0 mm CLR
09:30 13.4 °C 12.1 °C 1014.9 hPa South 5.0 km/h 7.4 km/h 92% 0.0 mm CLR
09:35 13.4 °C 12.1 °C 1014.8 hPa SSW 5.0 km/h 7.4 km/h 92% 0.0 mm CLR
09:40 13.6 °C 12.2 °C 1014.8 hPa South 5.0 km/h 5.6 km/h 91% 0.0 mm CLR
09:45 13.8 °C 12.3 °C 1014.8 hPa WSW 5.0 km/h 7.4 km/h 91% 0.0 mm CLR
09:50 13.9 °C 12.3 °C 1014.9 hPa West 3.9 km/h 7.4 km/h 90% 0.0 mm CLR
09:55 13.9 °C 12.1 °C 1014.9 hPa West 3.9 km/h 7.4 km/h 89% 0.0 mm CLR
10:00 13.9 °C 12.2 °C 1014.9 hPa West 3.2 km/h 9.7 km/h 89% 0.0 mm CLR
10:05 14.1 °C 12.2 °C 1014.9 hPa WSW 4.7 km/h 7.4 km/h 88% 0.0 mm CLR
10:10 14.1 °C 12.2 °C 1014.9 hPa NW 4.7 km/h 7.4 km/h 88% 0.0 mm CLR
10:15 14.2 °C 12.2 °C 1014.9 hPa WNW 4.7 km/h 3.7 km/h 88% 0.0 mm CLR
10:20 14.3 °C 12.2 °C 1014.9 hPa WNW 2.9 km/h 7.4 km/h 87% 0.0 mm CLR
10:25 14.4 °C 12.1 °C 1014.9 hPa SW 2.9 km/h 9.3 km/h 86% 0.0 mm CLR
10:30 14.4 °C 11.9 °C 1014.9 hPa SSW 4.7 km/h 7.4 km/h 85% 0.0 mm CLR
10:35 14.6 °C 12.1 °C 1015.1 hPa WSW 4.7 km/h 7.4 km/h 85% 0.0 mm CLR
10:40 14.7 °C 12.0 °C 1015.1 hPa SSW 5.8 km/h 11.1 km/h 84% 0.0 mm CLR
10:45 14.8 °C 11.9 °C 1015.1 hPa WNW 5.8 km/h 7.4 km/h 83% 0.0 mm CLR
10:50 14.8 °C 11.9 °C 1015.1 hPa SW 6.4 km/h 7.4 km/h 83% 0.0 mm CLR
10:55 15.1 °C 12.1 °C 1015.1 hPa SW 6.4 km/h 7.4 km/h 82% 0.0 mm CLR
11:00 15.2 °C 12.2 °C 1015.1 hPa SW 3.2 km/h 8.0 km/h 82% 0.0 mm CLR
11:05 15.4 °C 12.2 °C 1015.1 hPa WNW 3.9 km/h   81% 0.0 mm CLR
11:10 15.7 °C 12.3 °C 1015.1 hPa East 2.3 km/h 7.4 km/h 80% 0.0 mm CLR
11:15 15.9 °C 12.3 °C 1015.1 hPa West 2.3 km/h 10.3 km/h 79% 0.0 mm CLR
11:20 16.0 °C 12.2 °C 1015.1 hPa South 3.9 km/h 11.1 km/h 78% 0.0 mm CLR
11:25 16.2 °C 12.2 °C 1015.1 hPa South 3.9 km/h 7.4 km/h 77% 0.0 mm CLR
11:30 16.3 °C 12.1 °C 1015.1 hPa WNW 5.8 km/h 7.4 km/h 76% 0.0 mm CLR
11:35 16.3 °C 12.1 °C 1015.1 hPa WSW 4.8 km/h 11.3 km/h 76% 0.0 mm CLR
11:40 16.6 °C 12.2 °C 1015.1 hPa SSW 5.0 km/h 11.1 km/h 75% 0.0 mm CLR
11:45 16.7 °C 12.4 °C 1015.1 hPa South 5.0 km/h 5.6 km/h 76% 0.0 mm CLR
11:50 17.0 °C 12.3 °C 1014.9 hPa West 4.7 km/h 7.6 km/h 74% 0.0 mm CLR
11:55 17.1 °C 12.2 °C 1014.9 hPa WSW 4.7 km/h 11.1 km/h 73% 0.0 mm CLR
12:00 17.1 °C 12.0 °C 1014.9 hPa WSW 4.8 km/h 11.3 km/h 72% 0.0 mm CLR
12:05 17.3 °C 12.0 °C 1015.0 hPa WSW 4.8 km/h 16.1 km/h 71% 0.0 mm CLR
12:10 17.4 °C 12.1 °C 1015.0 hPa West 5.8 km/h 3.7 km/h 71% 0.0 mm CLR
12:15 17.8 °C 11.8 °C 1015.0 hPa SW 5.8 km/h 11.1 km/h 68% 0.0 mm CLR
12:20 17.9 °C 11.9 °C 1014.9 hPa SSW 4.7 km/h 11.1 km/h 68% 0.0 mm CLR
12:25 18.0 °C 11.8 °C 1014.9 hPa SSW 4.7 km/h 7.4 km/h 67% 0.0 mm CLR
12:30 18.1 °C 11.4 °C 1014.9 hPa SSW 5.0 km/h 9.3 km/h 65% 0.0 mm CLR
12:35 18.4 °C 11.7 °C 1014.8 hPa East 5.0 km/h   65% 0.0 mm CLR
12:40 18.8 °C 11.4 °C 1014.8 hPa South 3.9 km/h 9.3 km/h 62% 0.0 mm CLR
12:45 18.9 °C 11.4 °C 1014.8 hPa West 3.9 km/h 2.3 km/h 62% 0.0 mm CLR
12:50 18.9 °C 10.7 °C 1014.7 hPa SW 3.9 km/h 7.4 km/h 59% 0.0 mm CLR
12:55 18.9 °C 10.4 °C 1014.7 hPa SSW 3.9 km/h 3.7 km/h 58% 0.0 mm CLR
13:00 19.2 °C 10.7 °C 1014.7 hPa SSW 3.2 km/h 8.0 km/h 58% 0.0 mm CLR
13:05 19.4 °C 10.9 °C 1014.4 hPa SW 3.2 km/h 16.1 km/h 58% 0.0 mm CLR
13:10 19.4 °C 10.4 °C 1014.4 hPa SW 6.9 km/h 8.4 km/h 56% 0.0 mm CLR
13:15 19.6 °C 10.6 °C 1014.4 hPa WSW 6.9 km/h 7.4 km/h 56% 0.0 mm CLR
13:20 19.6 °C 10.6 °C 1014.3 hPa NW 5.8 km/h 11.1 km/h 56% 0.0 mm CLR
13:25 19.8 °C 10.2 °C 1014.3 hPa WSW 5.8 km/h 13.0 km/h 54% 0.0 mm CLR
13:30 19.7 °C 10.4 °C 1014.3 hPa West 6.4 km/h 9.5 km/h 55% 0.0 mm CLR
13:35 19.7 °C 10.7 °C 1014.1 hPa NNW 6.4 km/h 11.1 km/h 56% 0.0 mm CLR
13:40 19.8 °C 10.5 °C 1014.1 hPa NE 7.6 km/h 7.6 km/h 55% 0.0 mm CLR
13:45 20.1 °C 10.8 °C 1014.1 hPa SSE 7.6 km/h 7.4 km/h 55% 0.0 mm CLR
13:50 20.3 °C 10.7 °C 1013.8 hPa West 4.7 km/h 11.1 km/h 54% 0.0 mm CLR
13:55 20.2 °C 10.6 °C 1013.8 hPa NW 4.7 km/h 14.8 km/h 54% 0.0 mm CLR
14:00 20.2 °C 10.3 °C 1013.8 hPa NW 9.7 km/h 14.5 km/h 53% 0.0 mm CLR
14:05 20.2 °C 9.4 °C 1013.5 hPa West 8.7 km/h 16.7 km/h 50% 0.0 mm CLR
14:10 20.1 °C 8.7 °C 1013.5 hPa WNW 8.4 km/h 14.8 km/h 48% 0.0 mm CLR
14:15 20.2 °C 9.2 °C 1013.5 hPa NNW 8.4 km/h 11.1 km/h 49% 0.0 mm CLR
14:20 20.5 °C 9.4 °C 1013.1 hPa West 7.6 km/h 14.8 km/h 49% 0.0 mm CLR
14:25 20.5 °C 9.4 °C 1013.1 hPa ESE 7.6 km/h 7.4 km/h 49% 0.0 mm CLR
14:30 20.6 °C 9.2 °C 1013.1 hPa West 7.6 km/h 13.0 km/h 48% 0.0 mm CLR
14:35 20.8 °C 9.4 °C 1013.0 hPa SE 7.6 km/h 11.1 km/h 48% 0.0 mm CLR
14:40 21.1 °C 9.7 °C 1013.0 hPa SW 7.6 km/h 9.3 km/h 48% 0.0 mm CLR
14:45 21.3 °C 9.5 °C 1013.0 hPa NE 7.6 km/h 5.6 km/h 47% 0.0 mm CLR
14:50 21.5 °C 9.4 °C 1012.6 hPa South 4.7 km/h 14.8 km/h 46% 0.0 mm CLR
14:55 21.6 °C 9.5 °C 1012.6 hPa SE 4.7 km/h 9.3 km/h 46% 0.0 mm CLR
15:00 21.7 °C 8.9 °C 1012.6 hPa South 4.8 km/h 9.7 km/h 44% 0.0 mm CLR
15:05 21.6 °C 8.1 °C 1012.4 hPa West 5.8 km/h 14.8 km/h 42% 0.0 mm CLR
15:10 21.6 °C 8.8 °C 1012.4 hPa South 7.6 km/h 17.2 km/h 44% 0.0 mm CLR
15:15 21.3 °C 8.9 °C 1012.4 hPa SSW 7.6 km/h 14.8 km/h 45% 0.0 mm CLR
15:20 21.3 °C 8.9 °C 1012.1 hPa WSW 11.1 km/h 14.8 km/h 45% 0.0 mm CLR
15:25 21.6 °C 8.5 °C 1012.1 hPa SW 11.1 km/h 14.8 km/h 43% 0.0 mm CLR
15:30 21.7 °C 8.2 °C 1012.1 hPa SE 8.7 km/h 13.0 km/h 42% 0.0 mm CLR
15:35 22.1 °C 8.2 °C 1011.9 hPa SSE 8.7 km/h 18.0 km/h 41% 0.0 mm CLR
15:40 22.2 °C 7.9 °C 1011.9 hPa SSW 9.5 km/h 14.8 km/h 40% 0.0 mm CLR
15:45 22.1 °C 8.2 °C 1011.9 hPa ESE 9.5 km/h 11.9 km/h 41% 0.0 mm CLR
15:50 22.0 °C 8.1 °C 1011.7 hPa SSE 8.4 km/h 11.1 km/h 41% 0.0 mm CLR
15:55 22.2 °C 7.9 °C 1011.7 hPa SW 8.4 km/h 14.8 km/h 40% 0.0 mm CLR
16:00 22.4 °C 8.5 °C 1011.7 hPa SW 9.7 km/h 16.1 km/h 41% 0.0 mm CLR
16:05 22.3 °C 8.4 °C 1011.5 hPa South 8.7 km/h 11.1 km/h 41% 0.0 mm CLR
16:10 22.4 °C 8.5 °C 1011.5 hPa SW 8.4 km/h 9.3 km/h 41% 0.0 mm CLR
16:15 22.3 °C 8.4 °C 1011.5 hPa SSW 8.4 km/h 14.8 km/h 41% 0.0 mm CLR
16:20 22.2 °C 8.3 °C 1011.4 hPa West 8.7 km/h 9.3 km/h 41% 0.0 mm CLR
16:25 22.2 °C 8.7 °C 1011.4 hPa SSE 8.7 km/h 20.1 km/h 42% 0.0 mm CLR
16:30 22.3 °C 8.4 °C 1011.4 hPa SSW 8.7 km/h 20.4 km/h 41% 0.0 mm CLR
16:35 22.3 °C 8.8 °C 1011.2 hPa SSE 8.7 km/h 11.1 km/h 42% 0.0 mm CLR
16:40 22.2 °C 10.7 °C 1011.2 hPa SSE 9.5 km/h 25.9 km/h 48% 0.0 mm CLR
16:45 21.7 °C 11.4 °C 1011.2 hPa SSW 9.5 km/h 21.7 km/h 52% 0.0 mm CLR
16:50 21.4 °C 11.1 °C 1011.1 hPa South 15.6 km/h 16.7 km/h 52% 0.0 mm CLR
16:55 21.3 °C 11.3 °C 1011.1 hPa SSE 15.6 km/h 22.2 km/h 53% 0.0 mm CLR
17:00 21.2 °C 10.9 °C 1011.1 hPa SSE 14.5 km/h 22.5 km/h 52% 0.0 mm CLR
17:05 21.3 °C 11.3 °C 1010.9 hPa SSE 14.5 km/h 29.0 km/h 53% 0.0 mm CLR
17:10 21.1 °C 10.8 °C 1010.9 hPa SSE 16.1 km/h 22.2 km/h 52% 0.0 mm CLR
17:15 21.2 °C 10.9 °C 1010.9 hPa SSE 16.1 km/h 18.5 km/h 52% 0.0 mm CLR
17:20 21.3 °C 10.7 °C 1010.8 hPa SSE 14.0 km/h 20.4 km/h 51% 0.0 mm CLR
17:25 21.2 °C 10.9 °C 1010.8 hPa SSW 14.0 km/h 24.1 km/h 52% 0.0 mm CLR
17:30 21.4 °C 10.8 °C 1010.8 hPa South 14.0 km/h 16.7 km/h 51% 0.0 mm CLR
17:35 21.6 °C 10.7 °C 1010.7 hPa SSE 14.0 km/h 16.7 km/h 50% 0.0 mm CLR
17:40 21.6 °C 10.7 °C 1010.7 hPa South 12.2 km/h 16.7 km/h 50% 0.0 mm CLR
17:45 21.5 °C 10.6 °C 1010.7 hPa SSE 12.2 km/h 16.7 km/h 50% 0.0 mm CLR
17:50 21.5 °C 10.6 °C 1010.5 hPa South 13.0 km/h 14.8 km/h 50% 0.0 mm CLR
17:55 21.7 °C 10.8 °C 1010.5 hPa South 13.0 km/h 16.7 km/h 50% 0.0 mm CLR
18:00 21.8 °C 10.6 °C 1010.5 hPa South 9.7 km/h 19.3 km/h 49% 0.0 mm CLR
18:05 21.8 °C 10.3 °C 1010.3 hPa SSE 10.0 km/h 13.0 km/h 48% 0.0 mm CLR
18:10 21.8 °C 10.0 °C 1010.3 hPa SSE 8.7 km/h 9.3 km/h 47% 0.0 mm CLR
18:15 21.9 °C 10.4 °C 1010.3 hPa South 8.7 km/h 11.9 km/h 48% 0.0 mm CLR
18:20 22.1 °C 10.3 °C 1010.2 hPa ESE 7.6 km/h 11.1 km/h 47% 0.0 mm CLR
18:25 22.4 °C 10.2 °C 1010.2 hPa SSW 7.6 km/h 13.0 km/h 46% 0.0 mm CLR
18:30 22.3 °C 10.1 °C 1010.2 hPa SSW 8.7 km/h 11.1 km/h 46% 0.0 mm CLR
18:35 22.2 °C 10.0 °C 1010.1 hPa East 8.7 km/h 10.3 km/h 46% 0.0 mm CLR
18:40 22.2 °C 10.0 °C 1010.1 hPa South 5.8 km/h 9.3 km/h 46% 0.0 mm CLR
18:45 22.3 °C 10.8 °C 1010.1 hPa South 5.8 km/h 18.3 km/h 48% 0.0 mm CLR
18:50 22.1 °C 10.9 °C 1010.0 hPa South 10.0 km/h 16.7 km/h 49% 0.0 mm CLR
18:55 21.8 °C 10.6 °C 1010.0 hPa SSW 10.0 km/h 16.7 km/h 49% 0.0 mm CLR
19:00 21.9 °C 10.7 °C 1010.0 hPa South 11.3 km/h 19.3 km/h 49% 0.0 mm CLR
19:05 21.8 °C 10.9 °C 1010.0 hPa SSE 11.9 km/h 20.4 km/h 50% 0.0 mm CLR
19:10 21.7 °C 10.8 °C 1010.0 hPa SSE 11.9 km/h 18.3 km/h 50% 0.0 mm CLR
19:15 21.6 °C 11.0 °C 1010.0 hPa SSE 11.9 km/h 18.5 km/h 51% 0.0 mm CLR
19:20 21.5 °C 11.2 °C 1010.1 hPa SE 12.2 km/h 13.0 km/h 52% 0.0 mm CLR
19:25 21.4 °C 11.1 °C 1010.1 hPa SSE 12.2 km/h 18.5 km/h 52% 0.0 mm CLR
19:30 21.2 °C 10.9 °C 1010.1 hPa SSE 10.3 km/h 20.4 km/h 52% 0.0 mm CLR
19:35 20.8 °C 10.9 °C 1010.3 hPa ESE 10.3 km/h 13.0 km/h 53% 0.0 mm CLR
19:40 20.7 °C 10.8 °C 1010.3 hPa SE 12.2 km/h 16.7 km/h 53% 0.0 mm CLR
19:45 20.5 °C 10.6 °C 1010.3 hPa SSE 12.2 km/h 14.8 km/h 53% 0.0 mm CLR
19:50 20.4 °C 10.8 °C 1010.3 hPa ESE 11.9 km/h 11.1 km/h 54% 0.0 mm CLR
19:55 20.3 °C 10.9 °C 1010.3 hPa ESE 11.9 km/h 11.1 km/h 55% 0.0 mm CLR
20:00 20.1 °C 10.8 °C 1010.3 hPa ESE 8.0 km/h 12.9 km/h 55% 0.0 mm CLR
20:05 19.8 °C 10.8 °C 1010.5 hPa SE 8.4 km/h 11.1 km/h 56% 0.0 mm CLR
20:10 19.8 °C 10.8 °C 1010.5 hPa ESE 6.4 km/h 9.5 km/h 56% 0.0 mm CLR
20:15 19.7 °C 10.7 °C 1010.5 hPa ESE 6.4 km/h 11.1 km/h 56% 0.0 mm CLR
20:20 19.6 °C 10.8 °C 1010.4 hPa SSE 6.9 km/h 7.4 km/h 57% 0.0 mm CLR
20:25 19.6 °C 10.8 °C 1010.4 hPa South 6.9 km/h 7.4 km/h 57% 0.0 mm CLR
20:30 19.6 °C 10.1 °C 1010.4 hPa SSE 5.8 km/h 13.0 km/h 54% 0.0 mm CLR
20:35 19.6 °C 9.4 °C 1010.5 hPa SW 5.8 km/h 10.3 km/h 52% 0.0 mm CLR
20:40 19.6 °C 9.4 °C 1010.5 hPa SSW 7.6 km/h 7.6 km/h 52% 0.0 mm CLR
20:45 19.5 °C 9.1 °C 1010.5 hPa WSW 7.6 km/h 13.0 km/h 51% 0.0 mm CLR
20:50 19.5 °C 8.8 °C 1010.7 hPa SW 4.8 km/h 11.3 km/h 50% 0.0 mm CLR
20:55 19.4 °C 8.4 °C 1010.7 hPa SW 5.8 km/h 11.1 km/h 49% 0.0 mm CLR
21:00 19.4 °C 9.1 °C 1010.7 hPa SW 8.0 km/h 9.7 km/h 51% 0.0 mm CLR
21:05 19.4 °C 9.3 °C 1010.8 hPa SSW 7.6 km/h 9.3 km/h 52% 0.0 mm CLR
21:10 19.3 °C 10.1 °C 1010.8 hPa WSW 6.4 km/h 11.1 km/h 55% 0.0 mm CLR
21:15 19.2 °C 10.2 °C 1010.8 hPa SW 6.4 km/h 9.3 km/h 56% 0.0 mm CLR
21:20 19.0 °C 10.3 °C 1010.8 hPa SW 8.0 km/h 14.5 km/h 57% 0.0 mm CLR
21:25 18.9 °C 10.2 °C 1010.8 hPa SW 8.4 km/h 9.3 km/h 57% 0.0 mm CLR
21:30 18.8 °C 10.3 °C 1010.8 hPa WSW 5.8 km/h 5.6 km/h 58% 0.0 mm CLR
21:35 18.7 °C 10.3 °C 1011.1 hPa WNW 5.8 km/h 6.4 km/h 58% 0.0 mm CLR
21:40 18.7 °C 10.3 °C 1011.1 hPa WNW 3.2 km/h   58% 0.0 mm CLR
21:45 18.6 °C 10.4 °C 1011.1 hPa SW 3.2 km/h 7.4 km/h 59% 0.0 mm CLR
21:50 18.5 °C 10.3 °C 1011.3 hPa SW 3.2 km/h 3.7 km/h 59% 0.0 mm CLR
21:55 18.4 °C 10.5 °C 1011.3 hPa SW 3.2 km/h 7.4 km/h 60% 0.0 mm CLR
22:00 18.4 °C 10.5 °C 1011.3 hPa SW 3.2 km/h 8.0 km/h 60% 0.0 mm CLR
22:05 18.3 °C 10.7 °C 1011.4 hPa SW 3.9 km/h   61% 0.0 mm CLR
22:10 18.3 °C 10.7 °C 1011.4 hPa SW 2.3 km/h   61% 0.0 mm CLR
22:15 18.2 °C 10.6 °C 1011.4 hPa SW 2.3 km/h   61% 0.0 mm CLR
22:20 18.1 °C 10.4 °C 1011.6 hPa Calm     61% 0.0 mm CLR
22:25 18.0 °C 10.4 °C 1011.6 hPa Calm     61% 0.0 mm CLR
22:30 17.9 °C 10.3 °C 1011.6 hPa Calm     61% 0.0 mm CLR
22:35 17.8 °C 10.4 °C 1011.5 hPa Calm   5.0 km/h 62% 0.0 mm CLR
22:40 17.8 °C 10.7 °C 1011.5 hPa NNW 2.3 km/h 7.4 km/h 63% 0.0 mm CLR
22:45 17.6 °C 10.9 °C 1011.5 hPa NNW 2.3 km/h   65% 0.0 mm CLR
22:50 17.4 °C 11.0 °C 1011.9 hPa NNW 3.2 km/h 9.3 km/h 66% 0.0 mm CLR
22:55 17.1 °C 11.2 °C 1011.9 hPa NNW 3.2 km/h 9.3 km/h 68% 0.0 mm CLR
23:00 17.0 °C 11.3 °C 1011.9 hPa NNW 4.8 km/h 8.0 km/h 69% 0.0 mm CLR
23:05 16.9 °C 11.2 °C 1011.9 hPa NW 5.8 km/h   69% 0.0 mm CLR
23:10 16.9 °C 11.2 °C 1011.9 hPa NW 2.3 km/h   69% 0.0 mm CLR
23:15 16.9 °C 11.2 °C 1011.9 hPa NW 2.3 km/h   69% 0.0 mm CLR
23:20 16.9 °C 11.2 °C 1012.0 hPa Calm   8.4 km/h 69% 0.0 mm CLR
23:25 16.9 °C 11.4 °C 1012.0 hPa Calm   15.6 km/h 70% 0.0 mm CLR
23:30 16.7 °C 11.2 °C 1012.0 hPa ENE 8.0 km/h 16.1 km/h 70% 0.0 mm CLR
23:35 16.4 °C 11.6 °C 1012.0 hPa ESE 6.9 km/h 9.3 km/h 73% 0.0 mm CLR
23:40 16.3 °C 11.7 °C 1012.0 hPa ENE 6.9 km/h 9.3 km/h 74% 0.0 mm CLR
23:45 16.1 °C 11.9 °C 1012.0 hPa NE 6.9 km/h 9.3 km/h 76% 0.0 mm CLR
23:50 16.0 °C 11.9 °C 1012.0 hPa NE 6.4 km/h 7.4 km/h 77% 0.0 mm CLR
23:55 16.0 °C 12.2 °C 1012.0 hPa NE 6.4 km/h 13.0 km/h 78% 0.0 mm CLR
Murcia-Puente Tocinos, España
Compliments of Weather Underground - 2.75 mb

La estación de MeteoMurcia.com, publica sus datos en los siguientes proyectos:

Weather Underground PWS IMURCIAP2 Meteoclimatic www.awekas.at

W3Counter
Web Analytics